Time,TemperatureF,DewpointF,PressureIn,WindDirection,WindDirectionDegrees,WindSpeedMPH,WindSpeedGustMPH,Humidity,HourlyPrecipIn,Conditions,Clouds,dailyrainin,SoftwareType,DateUTC
2013-02-24 00:00:00,72.0,69.5,29.93,SW,233,3.5,3.5,92,0.00,CLR,,0.00,WeatherDisplay:10.37,2013-02-24 05:00:00,
2013-02-24 00:05:00,71.9,69.4,29.93,SW,232,4.6,4.6,92,0.00,CLR,,0.00,WeatherDisplay:10.37,2013-02-24 05:05:00,
2013-02-24 00:10:00,71.7,69.6,29.93,SW,236,4.6,4.6,93,0.00,CLR,,0.00,WeatherDisplay:10.37,2013-02-24 05:10:00,
2013-02-24 00:15:00,71.6,69.5,29.93,SW,225,4.6,4.6,93,0.00,CLR,,0.00,WeatherDisplay:10.37,2013-02-24 05:15:00,
2013-02-24 00:16:00,71.6,69.5,29.92,WSW,240,3.5,3.5,93,0.00,CLR,,0.00,WeatherDisplay:10.37,2013-02-24 05:16:00,
2013-02-24 00:21:00,71.4,69.3,29.92,SW,230,3.5,3.5,93,0.00,CLR,,0.00,WeatherDisplay:10.37,2013-02-24 05:21:00,
2013-02-24 00:26:00,71.2,69.4,29.93,SW,223,4.6,4.6,94,0.00,CLR,,0.00,WeatherDisplay:10.37,2013-02-24 05:26:00,
2013-02-24 00:31:00,71.1,69.3,29.93,SW,232,4.6,4.6,94,0.00,CLR,,0.00,WeatherDisplay:10.37,2013-02-24 05:31:00,
2013-02-24 00:36:00,71.0,69.2,29.93,SW,227,3.5,3.5,94,0.00,CLR,,0.00,WeatherDisplay:10.37,2013-02-24 05:36:00,
2013-02-24 00:41:00,71.0,69.2,29.92,SSW,213,3.0,3.0,94,0.00,CLR,,0.00,WeatherDisplay:10.37,2013-02-24 05:41:00,
2013-02-24 00:46:00,71.0,69.5,29.92,SW,219,3.5,3.5,95,0.00,CLR,,0.00,WeatherDisplay:10.37,2013-02-24 05:46:00,
2013-02-24 00:51:00,70.9,69.4,29.92,SW,222,3.5,3.5,95,0.00,CLR,,0.00,WeatherDisplay:10.37,2013-02-24 05:51:00,
2013-02-24 00:56:00,70.8,69.3,29.92,SW,215,3.5,3.5,95,0.00,CLR,,0.00,WeatherDisplay:10.37,2013-02-24 05:56:00,
2013-02-24 01:01:00,70.7,69.2,29.92,SW,220,3.5,3.5,95,0.00,CLR,,0.00,WeatherDisplay:10.37,2013-02-24 06:01:00,
2013-02-24 01:06:00,70.7,69.2,29.92,SW,227,3.5,3.5,95,0.00,CLR,,0.00,WeatherDisplay:10.37,2013-02-24 06:06:00,
2013-02-24 01:11:00,70.6,69.1,29.92,SW,225,3.5,3.5,95,0.00,CLR,,0.00,WeatherDisplay:10.37,2013-02-24 06:11:00,
2013-02-24 01:12:00,70.6,69.1,29.92,SW,225,3.5,3.5,95,0.00,CLR,,0.00,WeatherDisplay:10.37,2013-02-24 06:12:00,
2013-02-24 01:17:00,70.5,69.3,29.92,SW,231,3.5,3.5,96,0.00,CLR,,0.00,WeatherDisplay:10.37,2013-02-24 06:17:00,
2013-02-24 01:22:00,70.4,69.2,29.92,SW,221,3.5,3.5,96,0.00,CLR,,0.00,WeatherDisplay:10.37,2013-02-24 06:22:00,
2013-02-24 01:27:00,70.4,69.2,29.92,SW,227,3.5,3.5,96,0.00,CLR,,0.00,WeatherDisplay:10.37,2013-02-24 06:27:00,
2013-02-24 01:32:00,70.4,69.2,29.92,SW,218,3.5,3.5,96,0.00,CLR,,0.00,WeatherDisplay:10.37,2013-02-24 06:32:00,
2013-02-24 01:37:00,70.3,69.1,29.92,SSW,210,3.5,3.5,96,0.00,CLR,,0.00,WeatherDisplay:10.37,2013-02-24 06:37:00,
2013-02-24 01:42:00,70.3,69.1,29.92,SSW,201,3.5,3.5,96,0.00,CLR,,0.00,WeatherDisplay:10.37,2013-02-24 06:42:00,
2013-02-24 01:47:00,70.3,69.1,29.92,SW,214,3.5,3.5,96,0.00,CLR,,0.00,WeatherDisplay:10.37,2013-02-24 06:47:00,
2013-02-24 01:52:00,70.3,69.1,29.92,SSW,211,5.0,5.0,96,0.00,CLR,,0.00,WeatherDisplay:10.37,2013-02-24 06:52:00,
2013-02-24 01:57:00,70.3,69.4,29.92,SSW,196,4.6,4.6,97,0.00,CLR,,0.00,WeatherDisplay:10.37,2013-02-24 06:57:00,
2013-02-24 02:02:00,70.3,69.4,29.92,SSW,210,5.8,5.8,97,0.00,CLR,,0.00,WeatherDisplay:10.37,2013-02-24 07:02:00,
2013-02-24 02:07:00,70.3,69.4,29.91,SW,224,5.8,5.8,97,0.00,CLR,,0.00,WeatherDisplay:10.37,2013-02-24 07:07:00,
2013-02-24 02:12:00,70.3,69.4,29.91,SW,217,4.6,4.6,97,0.00,CLR,,0.00,WeatherDisplay:10.37,2013-02-24 07:12:00,
2013-02-24 02:17:00,70.3,69.4,29.91,SSW,209,5.8,5.8,97,0.00,CLR,,0.00,WeatherDisplay:10.37,2013-02-24 07:17:00,
2013-02-24 02:22:00,70.3,69.4,29.91,SW,217,4.6,4.6,97,0.00,CLR,,0.00,WeatherDisplay:10.37,2013-02-24 07:22:00,
2013-02-24 02:27:00,70.3,69.4,29.91,SW,216,5.8,5.8,97,0.00,CLR,,0.00,WeatherDisplay:10.37,2013-02-24 07:27:00,
2013-02-24 02:32:00,70.3,69.4,29.91,SW,222,4.6,4.6,97,0.00,CLR,,0.00,WeatherDisplay:10.37,2013-02-24 07:32:00,
2013-02-24 02:37:00,70.3,69.4,29.91,SW,224,5.8,5.8,97,0.00,CLR,,0.00,WeatherDisplay:10.37,2013-02-24 07:37:00,
2013-02-24 02:42:00,70.4,69.5,29.91,SW,219,5.8,5.8,97,0.00,CLR,,0.00,WeatherDisplay:10.37,2013-02-24 07:42:00,
2013-02-24 02:47:00,70.6,69.7,29.90,WSW,240,8.1,8.1,97,0.00,CLR,,0.00,WeatherDisplay:10.37,2013-02-24 07:47:00,
2013-02-24 02:52:00,70.8,69.9,29.90,WSW,244,5.8,5.8,97,0.00,CLR,,0.00,WeatherDisplay:10.37,2013-02-24 07:52:00,
2013-02-24 02:57:00,70.9,70.0,29.90,SW,220,4.6,4.6,97,0.00,CLR,,0.00,WeatherDisplay:10.37,2013-02-24 07:57:00,
2013-02-24 03:02:00,71.0,70.1,29.90,SW,217,6.9,6.9,97,0.00,CLR,,0.00,WeatherDisplay:10.37,2013-02-24 08:02:00,
2013-02-24 03:07:00,71.0,70.1,29.90,SW,215,4.6,4.6,97,0.00,CLR,,0.00,WeatherDisplay:10.37,2013-02-24 08:07:00,
2013-02-24 03:12:00,71.1,70.2,29.90,SW,215,5.0,5.0,97,0.00,CLR,,0.00,WeatherDisplay:10.37,2013-02-24 08:12:00,
2013-02-24 03:17:00,71.2,70.3,29.90,SW,221,5.8,5.8,97,0.00,CLR,,0.00,WeatherDisplay:10.37,2013-02-24 08:17:00,
2013-02-24 03:22:00,71.2,70.3,29.90,SSW,205,4.6,4.6,97,0.00,CLR,,0.00,WeatherDisplay:10.37,2013-02-24 08:22:00,
2013-02-24 03:27:00,71.2,70.3,29.90,SSW,211,4.6,4.6,97,0.00,CLR,,0.00,WeatherDisplay:10.37,2013-02-24 08:27:00,
2013-02-24 03:32:00,71.2,70.3,29.90,SSW,196,4.6,4.6,97,0.00,CLR,,0.00,WeatherDisplay:10.37,2013-02-24 08:32:00,
2013-02-24 03:37:00,71.2,70.3,29.90,SW,216,5.8,5.8,97,0.00,CLR,,0.00,WeatherDisplay:10.37,2013-02-24 08:37:00,
2013-02-24 03:42:00,71.2,70.3,29.89,SW,229,6.9,6.9,97,0.00,CLR,,0.00,WeatherDisplay:10.37,2013-02-24 08:42:00,
2013-02-24 03:47:00,71.3,70.4,29.89,SW,225,8.1,8.1,97,0.00,CLR,,0.00,WeatherDisplay:10.37,2013-02-24 08:47:00,
2013-02-24 03:52:00,71.3,70.4,29.89,WSW,244,9.2,9.2,97,0.00,CLR,,0.00,WeatherDisplay:10.37,2013-02-24 08:52:00,
2013-02-24 03:57:00,71.4,70.5,29.89,SW,232,5.8,5.8,97,0.00,CLR,,0.00,WeatherDisplay:10.37,2013-02-24 08:57:00,
2013-02-24 04:02:00,71.4,70.5,29.89,West,279,10.4,10.4,97,0.00,CLR,,0.00,WeatherDisplay:10.37,2013-02-24 09:02:00,
2013-02-24 04:07:00,71.4,70.5,29.89,SW,219,9.2,9.2,97,0.00,CLR,,0.00,WeatherDisplay:10.37,2013-02-24 09:07:00,
2013-02-24 04:12:00,71.4,70.5,29.89,SW,223,4.0,4.0,97,0.00,CLR,,0.00,WeatherDisplay:10.37,2013-02-24 09:12:00,
2013-02-24 04:17:00,71.4,70.5,29.89,SSW,203,3.0,3.0,97,0.00,CLR,,0.00,WeatherDisplay:10.37,2013-02-24 09:17:00,
2013-02-24 04:22:00,71.3,70.4,29.89,SW,233,4.6,4.6,97,0.00,CLR,,0.00,WeatherDisplay:10.37,2013-02-24 09:22:00,
2013-02-24 04:27:00,71.4,70.5,29.89,SW,222,4.6,4.6,97,0.00,CLR,,0.00,WeatherDisplay:10.37,2013-02-24 09:27:00,
2013-02-24 04:32:00,71.3,70.4,29.90,SW,232,7.0,7.0,97,0.00,CLR,,0.00,WeatherDisplay:10.37,2013-02-24 09:32:00,
2013-02-24 04:37:00,71.3,70.4,29.89,WSW,242,10.4,10.4,97,0.00,CLR,,0.00,WeatherDisplay:10.37,2013-02-24 09:37:00,
2013-02-24 04:42:00,71.3,70.4,29.89,SSW,201,12.0,12.0,97,0.00,CLR,,0.00,WeatherDisplay:10.37,2013-02-24 09:42:00,
2013-02-24 04:47:00,71.3,70.4,29.89,SW,221,6.9,6.9,97,0.00,CLR,,0.00,WeatherDisplay:10.37,2013-02-24 09:47:00,
2013-02-24 04:52:00,71.3,70.1,29.89,SSW,212,10.4,10.4,96,0.00,CLR,,0.00,WeatherDisplay:10.37,2013-02-24 09:52:00,
2013-02-24 04:57:00,71.3,70.1,29.89,WSW,238,4.6,4.6,96,0.00,CLR,,0.00,WeatherDisplay:10.37,2013-02-24 09:57:00,
2013-02-24 05:02:00,71.3,70.1,29.89,SW,227,4.6,4.6,96,0.00,CLR,,0.00,WeatherDisplay:10.37,2013-02-24 10:02:00,
2013-02-24 05:07:00,71.3,70.1,29.90,SW,215,4.0,4.0,96,0.00,CLR,,0.00,WeatherDisplay:10.37,2013-02-24 10:07:00,
2013-02-24 05:12:00,71.3,70.1,29.90,SW,223,4.6,4.6,96,0.00,CLR,,0.00,WeatherDisplay:10.37,2013-02-24 10:12:00,
2013-02-24 05:17:00,71.3,70.1,29.90,WSW,238,6.0,6.0,96,0.00,CLR,,0.00,WeatherDisplay:10.37,2013-02-24 10:17:00,
2013-02-24 05:22:00,71.3,70.1,29.90,SW,223,3.5,3.5,96,0.00,CLR,,0.00,WeatherDisplay:10.37,2013-02-24 10:22:00,
2013-02-24 05:27:00,71.3,70.1,29.90,SW,229,3.5,3.5,96,0.00,CLR,,0.00,WeatherDisplay:10.37,2013-02-24 10:27:00,
2013-02-24 05:32:00,71.2,70.3,29.91,SW,219,4.6,4.6,97,0.00,CLR,,0.00,WeatherDisplay:10.37,2013-02-24 10:32:00,
2013-02-24 05:37:00,71.3,70.4,29.91,SW,235,3.5,3.5,97,0.00,CLR,,0.00,WeatherDisplay:10.37,2013-02-24 10:37:00,
2013-02-24 05:42:00,71.3,70.4,29.91,SSW,207,3.5,3.5,97,0.00,CLR,,0.00,WeatherDisplay:10.37,2013-02-24 10:42:00,
2013-02-24 05:47:00,71.3,70.1,29.91,SW,228,3.5,3.5,96,0.00,CLR,,0.00,WeatherDisplay:10.37,2013-02-24 10:47:00,
2013-02-24 05:52:00,71.2,70.0,29.91,SW,230,6.9,6.9,96,0.00,CLR,,0.00,WeatherDisplay:10.37,2013-02-24 10:52:00,
2013-02-24 05:57:00,71.3,70.1,29.91,SSW,201,5.8,5.8,96,0.00,CLR,,0.00,WeatherDisplay:10.37,2013-02-24 10:57:00,
2013-02-24 06:02:00,71.3,70.1,29.91,SSW,213,9.2,9.2,96,0.00,CLR,,0.00,WeatherDisplay:10.37,2013-02-24 11:02:00,
2013-02-24 06:07:00,71.3,70.1,29.91,SSW,198,4.0,4.0,96,0.00,CLR,,0.00,WeatherDisplay:10.37,2013-02-24 11:07:00,
2013-02-24 06:12:00,71.2,70.0,29.91,SW,217,5.0,5.0,96,0.00,CLR,,0.00,WeatherDisplay:10.37,2013-02-24 11:12:00,
2013-02-24 06:17:00,71.2,70.0,29.91,South,189,6.9,6.9,96,0.00,CLR,,0.00,WeatherDisplay:10.37,2013-02-24 11:17:00,
2013-02-24 06:22:00,71.2,70.0,29.91,SW,222,6.9,6.9,96,0.00,CLR,,0.00,WeatherDisplay:10.37,2013-02-24 11:22:00,
2013-02-24 06:27:00,71.2,70.0,29.92,SW,218,4.6,4.6,96,0.00,CLR,,0.00,WeatherDisplay:10.37,2013-02-24 11:27:00,
2013-02-24 06:32:00,71.0,69.8,29.92,SSW,207,3.5,3.5,96,0.00,CLR,,0.00,WeatherDisplay:10.37,2013-02-24 11:32:00,
2013-02-24 06:37:00,70.9,69.7,29.91,SSW,202,4.6,4.6,96,0.00,CLR,,0.00,WeatherDisplay:10.37,2013-02-24 11:37:00,
2013-02-24 06:42:00,70.8,69.6,29.91,SSW,193,3.5,3.5,96,0.00,CLR,,0.00,WeatherDisplay:10.37,2013-02-24 11:42:00,
2013-02-24 06:47:00,70.7,69.5,29.91,SSW,209,4.6,4.6,96,0.00,CLR,,0.00,WeatherDisplay:10.37,2013-02-24 11:47:00,
2013-02-24 06:52:00,70.6,69.4,29.92,SW,217,6.9,6.9,96,0.00,CLR,,0.00,WeatherDisplay:10.37,2013-02-24 11:52:00,
2013-02-24 06:57:00,70.6,69.4,29.91,SW,227,6.9,6.9,96,0.00,CLR,,0.00,WeatherDisplay:10.37,2013-02-24 11:57:00,
2013-02-24 07:02:00,70.6,69.4,29.92,SSW,207,5.8,5.8,96,0.00,CLR,,0.00,WeatherDisplay:10.37,2013-02-24 12:02:00,
2013-02-24 07:07:00,70.6,69.4,29.92,SW,232,4.6,4.6,96,0.00,CLR,,0.00,WeatherDisplay:10.37,2013-02-24 12:07:00,
2013-02-24 07:12:00,70.7,69.5,29.92,SW,228,3.5,3.5,96,0.00,CLR,,0.00,WeatherDisplay:10.37,2013-02-24 12:12:00,
2013-02-24 07:17:00,70.7,69.5,29.93,SW,236,4.6,4.6,96,0.00,CLR,,0.00,WeatherDisplay:10.37,2013-02-24 12:17:00,
2013-02-24 07:22:00,70.7,69.5,29.93,WSW,256,3.5,3.5,96,0.00,CLR,,0.00,WeatherDisplay:10.37,2013-02-24 12:22:00,
2013-02-24 07:27:00,70.7,69.5,29.93,WSW,254,3.5,3.5,96,0.00,CLR,,0.00,WeatherDisplay:10.37,2013-02-24 12:27:00,
2013-02-24 07:32:00,70.7,69.5,29.93,SW,216,3.5,3.5,96,0.00,CLR,,0.00,WeatherDisplay:10.37,2013-02-24 12:32:00,
2013-02-24 07:37:00,70.8,69.6,29.93,SW,227,3.5,3.5,96,0.00,CLR,,0.00,WeatherDisplay:10.37,2013-02-24 12:37:00,
2013-02-24 07:42:00,70.8,69.6,29.93,WSW,241,3.5,3.5,96,0.00,CLR,,0.00,WeatherDisplay:10.37,2013-02-24 12:42:00,
2013-02-24 07:47:00,71.0,69.8,29.94,SW,234,1.2,1.2,96,0.00,CLR,,0.00,WeatherDisplay:10.37,2013-02-24 12:47:00,
2013-02-24 07:52:00,71.1,69.9,29.94,WSW,242,3.5,3.5,96,0.00,CLR,,0.00,WeatherDisplay:10.37,2013-02-24 12:52:00,
2013-02-24 07:57:00,71.4,70.2,29.94,SSW,201,3.0,3.0,96,0.00,CLR,,0.00,WeatherDisplay:10.37,2013-02-24 12:57:00,
2013-02-24 08:02:00,71.6,70.4,29.94,SW,223,4.0,4.0,96,0.00,CLR,,0.00,WeatherDisplay:10.37,2013-02-24 13:02:00,
2013-02-24 08:07:00,71.7,70.5,29.94,SW,221,4.6,4.6,96,0.00,CLR,,0.00,WeatherDisplay:10.37,2013-02-24 13:07:00,
2013-02-24 08:12:00,71.8,70.3,29.95,SW,218,5.8,5.8,95,0.00,CLR,,0.00,WeatherDisplay:10.37,2013-02-24 13:12:00,
2013-02-24 08:17:00,72.2,70.7,29.95,SW,215,5.0,5.0,95,0.00,CLR,,0.00,WeatherDisplay:10.37,2013-02-24 13:17:00,
2013-02-24 08:22:00,72.4,70.9,29.95,West,269,6.0,6.0,95,0.00,CLR,,0.00,WeatherDisplay:10.37,2013-02-24 13:22:00,
2013-02-24 08:27:00,72.4,70.3,29.95,West,263,9.2,9.2,93,0.00,CLR,,0.00,WeatherDisplay:10.37,2013-02-24 13:27:00,
2013-02-24 08:32:00,72.2,70.1,29.95,SW,217,5.8,5.8,93,0.00,CLR,,0.00,WeatherDisplay:10.37,2013-02-24 13:32:00,
2013-02-24 08:37:00,72.2,69.7,29.96,WSW,244,8.0,8.0,92,0.00,CLR,,0.00,WeatherDisplay:10.37,2013-02-24 13:37:00,
2013-02-24 08:42:00,72.7,70.2,29.96,WSW,240,6.0,6.0,92,0.00,CLR,,0.00,WeatherDisplay:10.37,2013-02-24 13:42:00,
2013-02-24 08:47:00,73.1,70.0,29.96,South,190,8.1,8.1,90,0.00,CLR,,0.00,WeatherDisplay:10.37,2013-02-24 13:47:00,
2013-02-24 08:52:00,73.6,70.5,29.96,SSW,196,3.5,3.5,90,0.00,CLR,,0.00,WeatherDisplay:10.37,2013-02-24 13:52:00,
2013-02-24 08:57:00,73.8,70.0,29.96,WSW,239,10.0,10.0,88,0.00,CLR,,0.00,WeatherDisplay:10.37,2013-02-24 13:57:00,
2013-02-24 09:02:00,73.2,69.8,29.96,SW,220,11.0,11.0,89,0.00,CLR,,0.00,WeatherDisplay:10.37,2013-02-24 14:02:00,
2013-02-24 09:07:00,73.0,69.9,29.96,SSW,206,6.9,6.9,90,0.00,CLR,,0.00,WeatherDisplay:10.37,2013-02-24 14:07:00,
2013-02-24 09:12:00,73.1,70.0,29.96,SW,224,6.0,6.0,90,0.00,CLR,,0.00,WeatherDisplay:10.37,2013-02-24 14:12:00,
2013-02-24 09:17:00,73.5,70.7,29.96,SW,229,9.2,9.2,91,0.00,CLR,,0.00,WeatherDisplay:10.37,2013-02-24 14:17:00,
2013-02-24 09:22:00,73.9,70.8,29.96,South,180,4.6,4.6,90,0.00,CLR,,0.00,WeatherDisplay:10.37,2013-02-24 14:22:00,
2013-02-24 09:27:00,74.6,71.1,29.96,South,173,5.8,5.8,89,0.00,CLR,,0.00,WeatherDisplay:10.37,2013-02-24 14:27:00,
2013-02-24 09:32:00,75.3,70.8,29.96,SSW,203,10.4,10.4,86,0.00,CLR,,0.00,WeatherDisplay:10.37,2013-02-24 14:32:00,
2013-02-24 09:37:00,75.4,70.9,29.96,SSW,206,9.2,9.2,86,0.00,CLR,,0.00,WeatherDisplay:10.37,2013-02-24 14:37:00,
2013-02-24 09:42:00,75.5,71.4,29.96,SW,229,11.0,11.0,87,0.00,CLR,,0.00,WeatherDisplay:10.37,2013-02-24 14:42:00,
2013-02-24 09:47:00,75.4,70.9,29.96,SSW,213,9.0,9.0,86,0.00,CLR,,0.00,WeatherDisplay:10.37,2013-02-24 14:47:00,
2013-02-24 09:52:00,75.8,71.0,29.97,SW,232,9.2,9.2,85,0.00,CLR,,0.00,WeatherDisplay:10.37,2013-02-24 14:52:00,
2013-02-24 09:57:00,76.4,71.2,29.96,SW,215,7.0,7.0,84,0.00,CLR,,0.00,WeatherDisplay:10.37,2013-02-24 14:57:00,
2013-02-24 10:02:00,76.9,71.7,29.96,West,272,5.8,5.8,84,0.00,CLR,,0.00,WeatherDisplay:10.37,2013-02-24 15:02:00,
2013-02-24 10:07:00,77.5,71.6,29.96,West,262,5.8,5.8,82,0.00,CLR,,0.00,WeatherDisplay:10.37,2013-02-24 15:07:00,
2013-02-24 10:12:00,77.5,71.2,29.96,West,275,10.4,10.4,81,0.00,CLR,,0.00,WeatherDisplay:10.37,2013-02-24 15:12:00,
2013-02-24 10:17:00,77.4,71.1,29.96,South,190,7.0,7.0,81,0.00,CLR,,0.00,WeatherDisplay:10.37,2013-02-24 15:17:00,
2013-02-24 10:22:00,78.3,71.6,29.96,WNW,283,6.9,6.9,80,0.00,CLR,,0.00,WeatherDisplay:10.37,2013-02-24 15:22:00,
2013-02-24 10:27:00,78.3,70.9,29.96,SW,229,11.5,11.5,78,0.00,CLR,,0.00,WeatherDisplay:10.37,2013-02-24 15:27:00,
2013-02-24 10:32:00,78.0,70.6,29.96,WSW,247,11.5,11.5,78,0.00,CLR,,0.00,WeatherDisplay:10.37,2013-02-24 15:32:00,
2013-02-24 10:37:00,78.7,70.9,29.96,SSE,161,9.0,9.0,77,0.00,CLR,,0.00,WeatherDisplay:10.37,2013-02-24 15:37:00,
2013-02-24 10:42:00,79.1,70.5,29.96,West,265,5.8,5.8,75,0.00,CLR,,0.00,WeatherDisplay:10.37,2013-02-24 15:42:00,
2013-02-24 10:47:00,79.9,71.3,29.95,SSW,201,4.6,4.6,75,0.00,CLR,,0.00,WeatherDisplay:10.37,2013-02-24 15:47:00,
2013-02-24 10:52:00,80.5,71.0,29.95,SW,220,10.4,10.4,73,0.00,CLR,,0.00,WeatherDisplay:10.37,2013-02-24 15:52:00,
2013-02-24 10:57:00,80.8,70.9,29.95,SW,218,4.6,4.6,72,0.00,CLR,,0.00,WeatherDisplay:10.37,2013-02-24 15:57:00,
2013-02-24 11:02:00,80.5,70.2,29.95,WSW,238,5.8,5.8,71,0.00,CLR,,0.00,WeatherDisplay:10.37,2013-02-24 16:02:00,
2013-02-24 11:07:00,80.8,70.9,29.95,SSW,192,7.0,7.0,72,0.00,CLR,,0.00,WeatherDisplay:10.37,2013-02-24 16:07:00,
2013-02-24 11:12:00,81.3,71.0,29.95,SSW,201,4.6,4.6,71,0.00,CLR,,0.00,WeatherDisplay:10.37,2013-02-24 16:12:00,
2013-02-24 11:17:00,81.7,70.1,29.95,WSW,241,10.4,10.4,68,0.00,CLR,,0.00,WeatherDisplay:10.37,2013-02-24 16:17:00,
2013-02-24 11:22:00,81.8,70.6,29.94,SW,218,7.0,7.0,69,0.00,CLR,,0.00,WeatherDisplay:10.37,2013-02-24 16:22:00,
2013-02-24 11:27:00,81.6,70.4,29.94,SW,236,10.4,10.4,69,0.00,CLR,,0.00,WeatherDisplay:10.37,2013-02-24 16:27:00,
2013-02-24 11:32:00,81.6,70.4,29.94,West,259,6.9,6.9,69,0.00,CLR,,0.00,WeatherDisplay:10.37,2013-02-24 16:32:00,
2013-02-24 11:37:00,81.6,70.4,29.94,West,264,10.4,10.4,69,0.00,CLR,,0.00,WeatherDisplay:10.37,2013-02-24 16:37:00,
2013-02-24 11:42:00,81.4,69.8,29.93,West,265,6.9,6.9,68,0.00,CLR,,0.00,WeatherDisplay:10.37,2013-02-24 16:42:00,
2013-02-24 11:47:00,81.8,70.6,29.93,SW,217,6.9,6.9,69,0.00,CLR,,0.00,WeatherDisplay:10.37,2013-02-24 16:47:00,
2013-02-24 11:52:00,82.3,70.2,29.93,West,270,10.4,10.4,67,0.00,CLR,,0.00,WeatherDisplay:10.37,2013-02-24 16:52:00,
2013-02-24 11:57:00,82.1,70.1,29.92,SSE,167,11.5,11.5,67,0.00,CLR,,0.00,WeatherDisplay:10.37,2013-02-24 16:57:00,
2013-02-24 12:02:00,81.9,69.9,29.92,West,268,8.1,8.1,67,0.00,CLR,,0.00,WeatherDisplay:10.37,2013-02-24 17:02:00,
2013-02-24 12:07:00,82.4,70.3,29.92,SSW,213,10.4,10.4,67,0.00,CLR,,0.00,WeatherDisplay:10.37,2013-02-24 17:07:00,
2013-02-24 12:12:00,83.1,70.1,29.92,SW,229,8.1,8.1,65,0.00,CLR,,0.00,WeatherDisplay:10.37,2013-02-24 17:12:00,
2013-02-24 12:17:00,83.3,70.3,29.92,SSW,211,8.1,8.1,65,0.00,CLR,,0.00,WeatherDisplay:10.37,2013-02-24 17:17:00,
2013-02-24 12:22:00,83.6,69.7,29.92,SSW,212,11.5,11.5,63,0.00,CLR,,0.00,WeatherDisplay:10.37,2013-02-24 17:22:00,
2013-02-24 12:27:00,83.4,70.4,29.92,SW,228,7.0,7.0,65,0.00,CLR,,0.00,WeatherDisplay:10.37,2013-02-24 17:27:00,
2013-02-24 12:32:00,83.8,69.4,29.92,SW,236,10.4,10.4,62,0.00,CLR,,0.00,WeatherDisplay:10.37,2013-02-24 17:32:00,
2013-02-24 12:37:00,83.5,68.6,29.91,SW,236,5.8,5.8,61,0.00,CLR,,0.00,WeatherDisplay:10.37,2013-02-24 17:37:00,
2013-02-24 12:42:00,83.9,69.5,29.91,SSW,196,5.8,5.8,62,0.00,CLR,,0.00,WeatherDisplay:10.37,2013-02-24 17:42:00,
2013-02-24 12:47:00,85.1,69.2,29.91,South,184,3.5,3.5,59,0.00,CLR,,0.00,WeatherDisplay:10.37,2013-02-24 17:47:00,
2013-02-24 12:52:00,85.7,69.2,29.90,SW,226,5.8,5.8,58,0.00,CLR,,0.00,WeatherDisplay:10.37,2013-02-24 17:52:00,
2013-02-24 12:57:00,85.4,68.9,29.90,SW,231,10.4,10.4,58,0.00,CLR,,0.00,WeatherDisplay:10.37,2013-02-24 17:57:00,
2013-02-24 13:02:00,85.4,67.4,29.89,West,275,10.4,10.4,55,0.00,CLR,,0.00,WeatherDisplay:10.37,2013-02-24 18:02:00,
2013-02-24 13:07:00,85.6,68.1,29.89,West,265,10.0,10.0,56,0.00,CLR,,0.00,WeatherDisplay:10.37,2013-02-24 18:07:00,
2013-02-24 13:12:00,85.6,67.6,29.89,West,275,9.2,9.2,55,0.00,CLR,,0.00,WeatherDisplay:10.37,2013-02-24 18:12:00,
2013-02-24 13:17:00,85.9,67.3,29.88,SW,215,11.0,11.0,54,0.00,CLR,,0.00,WeatherDisplay:10.37,2013-02-24 18:17:00,
2013-02-24 13:22:00,85.9,67.9,29.88,SW,216,9.2,9.2,55,0.00,CLR,,0.00,WeatherDisplay:10.37,2013-02-24 18:22:00,
2013-02-24 13:27:00,85.6,66.5,29.88,SSW,207,13.8,13.8,53,0.00,CLR,,0.00,WeatherDisplay:10.37,2013-02-24 18:27:00,
2013-02-24 13:32:00,85.6,67.0,29.88,South,185,10.4,10.4,54,0.00,CLR,,0.00,WeatherDisplay:10.37,2013-02-24 18:32:00,
2013-02-24 13:37:00,86.0,67.4,29.88,SW,221,10.4,10.4,54,0.00,CLR,,0.00,WeatherDisplay:10.37,2013-02-24 18:37:00,
2013-02-24 13:42:00,86.4,66.1,29.88,SW,219,12.7,12.7,51,0.00,CLR,,0.00,WeatherDisplay:10.37,2013-02-24 18:42:00,
2013-02-24 13:47:00,86.6,66.9,29.88,WSW,258,12.7,12.7,52,0.00,CLR,,0.00,WeatherDisplay:10.37,2013-02-24 18:47:00,
2013-02-24 13:52:00,85.8,66.1,29.88,SW,221,9.2,9.2,52,0.00,CLR,,0.00,WeatherDisplay:10.37,2013-02-24 18:52:00,
2013-02-24 13:57:00,85.5,65.3,29.88,WSW,257,11.5,11.5,51,0.00,CLR,,0.00,WeatherDisplay:10.37,2013-02-24 18:57:00,
2013-02-24 14:02:00,85.6,66.0,29.88,SSW,196,12.7,12.7,52,0.00,CLR,,0.00,WeatherDisplay:10.37,2013-02-24 19:02:00,
2013-02-24 14:07:00,85.8,65.6,29.88,WSW,252,11.5,11.5,51,0.00,CLR,,0.00,WeatherDisplay:10.37,2013-02-24 19:07:00,
2013-02-24 14:12:00,86.3,66.6,29.87,SSW,201,11.5,11.5,52,0.00,CLR,,0.00,WeatherDisplay:10.37,2013-02-24 19:12:00,
2013-02-24 14:17:00,86.5,65.1,29.88,SSW,213,10.4,10.4,49,0.00,CLR,,0.00,WeatherDisplay:10.37,2013-02-24 19:17:00,
2013-02-24 14:22:00,86.7,65.3,29.87,South,182,10.4,10.4,49,0.00,CLR,,0.00,WeatherDisplay:10.37,2013-02-24 19:22:00,
2013-02-24 14:27:00,86.5,65.1,29.87,SW,230,11.5,11.5,49,0.00,CLR,,0.00,WeatherDisplay:10.37,2013-02-24 19:27:00,
2013-02-24 14:32:00,86.4,65.0,29.87,WSW,242,6.9,6.9,49,0.00,CLR,,0.00,WeatherDisplay:10.37,2013-02-24 19:32:00,
2013-02-24 14:37:00,87.2,65.7,29.87,West,270,3.5,3.5,49,0.00,CLR,,0.00,WeatherDisplay:10.37,2013-02-24 19:37:00,
2013-02-24 14:42:00,87.9,65.2,29.87,WSW,254,11.5,11.5,47,0.00,CLR,,0.00,WeatherDisplay:10.37,2013-02-24 19:42:00,
2013-02-24 14:47:00,87.5,64.8,29.86,West,273,5.8,5.8,47,0.00,CLR,,0.00,WeatherDisplay:10.37,2013-02-24 19:47:00,
2013-02-24 14:52:00,87.7,65.6,29.86,SSW,202,11.5,11.5,48,0.00,CLR,,0.00,WeatherDisplay:10.37,2013-02-24 19:52:00,
2013-02-24 14:57:00,86.4,64.4,29.86,WSW,257,9.2,9.2,48,0.00,CLR,,0.00,WeatherDisplay:10.37,2013-02-24 19:57:00,
2013-02-24 15:02:00,86.4,65.6,29.86,West,277,11.0,11.0,50,0.00,CLR,,0.00,WeatherDisplay:10.37,2013-02-24 20:02:00,
2013-02-24 15:07:00,86.1,65.9,29.86,West,275,9.2,9.2,51,0.00,CLR,,0.00,WeatherDisplay:10.37,2013-02-24 20:07:00,
2013-02-24 15:12:00,85.9,65.1,29.86,SW,222,10.4,10.4,50,0.00,CLR,,0.00,WeatherDisplay:10.37,2013-02-24 20:12:00,
2013-02-24 15:17:00,85.6,64.8,29.86,SSW,211,5.0,5.0,50,0.00,CLR,,0.00,WeatherDisplay:10.37,2013-02-24 20:17:00,
2013-02-24 15:22:00,85.2,65.0,29.86,South,186,4.0,4.0,51,0.00,CLR,,0.00,WeatherDisplay:10.37,2013-02-24 20:22:00,
2013-02-24 15:27:00,85.0,66.0,29.86,WSW,246,4.6,4.6,53,0.00,CLR,,0.00,WeatherDisplay:10.37,2013-02-24 20:27:00,
2013-02-24 15:32:00,84.4,66.5,29.86,WNW,297,6.9,6.9,55,0.00,CLR,,0.00,WeatherDisplay:10.37,2013-02-24 20:32:00,
2013-02-24 15:37:00,84.3,66.4,29.86,NW,313,4.6,4.6,55,0.00,CLR,,0.00,WeatherDisplay:10.37,2013-02-24 20:37:00,
2013-02-24 15:42:00,84.5,66.6,29.86,WSW,254,3.5,3.5,55,0.00,CLR,,0.00,WeatherDisplay:10.37,2013-02-24 20:42:00,
2013-02-24 15:47:00,84.6,66.1,29.86,WNW,290,5.8,5.8,54,0.00,CLR,,0.00,WeatherDisplay:10.37,2013-02-24 20:47:00,
2013-02-24 15:52:00,85.4,65.8,29.86,West,259,5.8,5.8,52,0.00,CLR,,0.00,WeatherDisplay:10.37,2013-02-24 20:52:00,
2013-02-24 15:57:00,86.4,66.7,29.86,NW,319,4.0,4.0,52,0.00,CLR,,0.00,WeatherDisplay:10.37,2013-02-24 20:57:00,
2013-02-24 16:02:00,87.0,65.5,29.86,SW,234,8.0,8.0,49,0.00,CLR,,0.00,WeatherDisplay:10.37,2013-02-24 21:02:00,
2013-02-24 16:07:00,86.9,66.0,29.86,West,261,10.0,10.0,50,0.00,CLR,,0.00,WeatherDisplay:10.37,2013-02-24 21:07:00,
2013-02-24 16:12:00,87.0,65.5,29.86,NW,304,5.8,5.8,49,0.00,CLR,,0.00,WeatherDisplay:10.37,2013-02-24 21:12:00,
2013-02-24 16:17:00,87.5,66.0,29.86,South,181,5.8,5.8,49,0.00,CLR,,0.00,WeatherDisplay:10.37,2013-02-24 21:17:00,
2013-02-24 16:22:00,87.5,68.3,29.86,SSE,160,4.6,4.6,53,0.00,CLR,,0.00,WeatherDisplay:10.37,2013-02-24 21:22:00,
2013-02-24 16:27:00,86.5,71.0,29.86,SSW,196,5.0,5.0,60,0.00,CLR,,0.00,WeatherDisplay:10.37,2013-02-24 21:27:00,
2013-02-24 16:32:00,85.3,70.8,29.86,SE,141,5.8,5.8,62,0.00,CLR,,0.00,WeatherDisplay:10.37,2013-02-24 21:32:00,
2013-02-24 16:37:00,84.1,70.6,29.86,SE,127,10.4,10.4,64,0.00,CLR,,0.00,WeatherDisplay:10.37,2013-02-24 21:37:00,
2013-02-24 16:42:00,83.3,70.3,29.86,South,179,11.5,11.5,65,0.00,CLR,,0.00,WeatherDisplay:10.37,2013-02-24 21:42:00,
2013-02-24 16:47:00,82.4,70.3,29.86,SSE,166,12.7,12.7,67,0.00,CLR,,0.00,WeatherDisplay:10.37,2013-02-24 21:47:00,
2013-02-24 16:52:00,81.8,70.2,29.86,SSE,153,6.9,6.9,68,0.00,CLR,,0.00,WeatherDisplay:10.37,2013-02-24 21:52:00,
2013-02-24 16:57:00,81.3,70.2,29.86,East,101,5.8,5.8,69,0.00,CLR,,0.00,WeatherDisplay:10.37,2013-02-24 21:57:00,
2013-02-24 17:02:00,81.0,70.3,29.87,East,100,3.5,3.5,70,0.00,CLR,,0.00,WeatherDisplay:10.37,2013-02-24 22:02:00,
2013-02-24 17:07:00,81.0,70.3,29.87,NE,55,3.5,3.5,70,0.00,CLR,,0.00,WeatherDisplay:10.37,2013-02-24 22:07:00,
2013-02-24 17:12:00,81.0,69.9,29.87,East,84,3.5,3.5,69,0.00,CLR,,0.00,WeatherDisplay:10.37,2013-02-24 22:12:00,
2013-02-24 17:17:00,80.9,69.8,29.87,SSE,162,3.5,3.5,69,0.00,CLR,,0.00,WeatherDisplay:10.37,2013-02-24 22:17:00,
2013-02-24 17:22:00,80.8,69.2,29.87,SSE,163,9.2,9.2,68,0.00,CLR,,0.00,WeatherDisplay:10.37,2013-02-24 22:22:00,
2013-02-24 17:27:00,80.7,69.2,29.87,South,184,11.5,11.5,68,0.00,CLR,,0.00,WeatherDisplay:10.37,2013-02-24 22:27:00,
2013-02-24 17:32:00,80.5,69.0,29.87,SSE,153,9.2,9.2,68,0.00,CLR,,0.00,WeatherDisplay:10.37,2013-02-24 22:32:00,
2013-02-24 17:37:00,80.3,68.8,29.87,SE,145,8.0,8.0,68,0.00,CLR,,0.00,WeatherDisplay:10.37,2013-02-24 22:37:00,
2013-02-24 17:42:00,79.9,68.8,29.87,SE,146,10.4,10.4,69,0.00,CLR,,0.00,WeatherDisplay:10.37,2013-02-24 22:42:00,
2013-02-24 17:47:00,79.7,69.0,29.87,SSE,157,10.4,10.4,70,0.00,CLR,,0.00,WeatherDisplay:10.37,2013-02-24 22:47:00,
2013-02-24 17:52:00,79.6,68.5,29.87,SSE,163,10.4,10.4,69,0.00,CLR,,0.00,WeatherDisplay:10.37,2013-02-24 22:52:00,
2013-02-24 17:57:00,79.4,68.3,29.87,SE,146,11.5,11.5,69,0.00,CLR,,0.00,WeatherDisplay:10.37,2013-02-24 22:57:00,
2013-02-24 18:02:00,79.2,68.6,29.87,SSE,157,10.4,10.4,70,0.00,CLR,,0.00,WeatherDisplay:10.37,2013-02-24 23:02:00,
2013-02-24 18:07:00,79.1,68.5,29.87,SE,143,4.6,4.6,70,0.00,CLR,,0.00,WeatherDisplay:10.37,2013-02-24 23:07:00,
2013-02-24 18:12:00,79.0,68.8,29.87,SSE,152,4.6,4.6,71,0.00,CLR,,0.00,WeatherDisplay:10.37,2013-02-24 23:12:00,
2013-02-24 18:17:00,78.9,68.7,29.88,SE,146,6.9,6.9,71,0.00,CLR,,0.00,WeatherDisplay:10.37,2013-02-24 23:17:00,
2013-02-24 18:22:00,78.8,68.6,29.88,SE,140,9.2,9.2,71,0.00,CLR,,0.00,WeatherDisplay:10.37,2013-02-24 23:22:00,
2013-02-24 18:27:00,78.7,68.9,29.88,SSE,159,6.9,6.9,72,0.00,CLR,,0.00,WeatherDisplay:10.37,2013-02-24 23:27:00,
2013-02-24 18:32:00,78.5,68.7,29.88,SE,138,6.9,6.9,72,0.00,CLR,,0.00,WeatherDisplay:10.37,2013-02-24 23:32:00,
2013-02-24 18:37:00,78.4,68.6,29.88,SE,144,5.8,5.8,72,0.00,CLR,,0.00,WeatherDisplay:10.37,2013-02-24 23:37:00,
2013-02-24 18:42:00,78.2,68.4,29.88,SSE,150,4.6,4.6,72,0.00,CLR,,0.00,WeatherDisplay:10.37,2013-02-24 23:42:00,
2013-02-24 18:47:00,78.0,68.2,29.88,SSE,148,9.2,9.2,72,0.00,CLR,,0.00,WeatherDisplay:10.37,2013-02-24 23:47:00,
2013-02-24 18:52:00,77.9,68.1,29.87,SSE,153,5.8,5.8,72,0.00,CLR,,0.00,WeatherDisplay:10.37,2013-02-24 23:52:00,
2013-02-24 18:57:00,77.8,68.0,29.88,SE,136,6.9,6.9,72,0.00,CLR,,0.00,WeatherDisplay:10.37,2013-02-24 23:57:00,
2013-02-24 19:02:00,77.7,68.0,29.88,SSE,166,5.8,5.8,72,0.00,CLR,,0.00,WeatherDisplay:10.37,2013-02-25 00:02:00,
2013-02-24 19:07:00,77.5,67.4,29.88,SE,143,5.8,5.8,71,0.00,CLR,,0.00,WeatherDisplay:10.37,2013-02-25 00:07:00,
2013-02-24 19:12:00,77.5,67.4,29.88,SE,141,5.8,5.8,71,0.00,CLR,,0.00,WeatherDisplay:10.37,2013-02-25 00:12:00,
2013-02-24 19:17:00,77.4,67.3,29.88,SE,137,6.0,6.0,71,0.00,CLR,,0.00,WeatherDisplay:10.37,2013-02-25 00:17:00,
2013-02-24 19:22:00,77.3,67.6,29.88,SE,142,5.8,5.8,72,0.00,CLR,,0.00,WeatherDisplay:10.37,2013-02-25 00:22:00,
2013-02-24 19:27:00,77.2,67.9,29.89,SSE,157,4.6,4.6,73,0.00,CLR,,0.00,WeatherDisplay:10.37,2013-02-25 00:27:00,
2013-02-24 19:32:00,77.1,68.2,29.89,SSE,150,5.8,5.8,74,0.00,CLR,,0.00,WeatherDisplay:10.37,2013-02-25 00:32:00,
2013-02-24 19:37:00,77.1,68.6,29.89,SE,144,5.8,5.8,75,0.00,CLR,,0.00,WeatherDisplay:10.37,2013-02-25 00:37:00,
2013-02-24 19:42:00,77.0,68.9,29.89,SE,132,3.5,3.5,76,0.00,CLR,,0.00,WeatherDisplay:10.37,2013-02-25 00:42:00,
2013-02-24 19:47:00,76.9,69.1,29.89,SSE,153,6.9,6.9,77,0.00,CLR,,0.00,WeatherDisplay:10.37,2013-02-25 00:47:00,
2013-02-24 19:52:00,76.9,69.5,29.89,SSE,157,10.4,10.4,78,0.00,CLR,,0.00,WeatherDisplay:10.37,2013-02-25 00:52:00,
2013-02-24 19:57:00,76.9,69.9,29.89,SE,136,3.5,3.5,79,0.00,CLR,,0.00,WeatherDisplay:10.37,2013-02-25 00:57:00,
2013-02-24 20:02:00,76.9,69.9,29.89,SSE,148,5.0,5.0,79,0.00,CLR,,0.00,WeatherDisplay:10.37,2013-02-25 01:02:00,
2013-02-24 20:07:00,76.9,70.3,29.89,SE,142,6.0,6.0,80,0.00,CLR,,0.00,WeatherDisplay:10.37,2013-02-25 01:07:00,
2013-02-24 20:12:00,76.8,70.2,29.89,SE,139,9.2,9.2,80,0.00,CLR,,0.00,WeatherDisplay:10.37,2013-02-25 01:12:00,
2013-02-24 20:17:00,76.8,70.5,29.89,SSE,158,5.8,5.8,81,0.00,CLR,,0.00,WeatherDisplay:10.37,2013-02-25 01:17:00,
2013-02-24 20:22:00,76.7,70.4,29.89,SSE,165,6.9,6.9,81,0.00,CLR,,0.00,WeatherDisplay:10.37,2013-02-25 01:22:00,
2013-02-24 20:27:00,76.6,70.3,29.89,SSE,150,9.2,9.2,81,0.00,CLR,,0.00,WeatherDisplay:10.37,2013-02-25 01:27:00,
2013-02-24 20:32:00,76.5,70.2,29.89,SE,146,5.8,5.8,81,0.00,CLR,,0.00,WeatherDisplay:10.37,2013-02-25 01:32:00,
2013-02-24 20:37:00,76.5,70.6,29.89,SE,138,6.9,6.9,82,0.00,CLR,,0.00,WeatherDisplay:10.37,2013-02-25 01:37:00,
2013-02-24 20:42:00,76.5,70.6,29.89,SSE,162,4.6,4.6,82,0.00,CLR,,0.00,WeatherDisplay:10.37,2013-02-25 01:42:00,
2013-02-24 20:47:00,76.5,70.6,29.89,South,178,5.0,5.0,82,0.00,CLR,,0.00,WeatherDisplay:10.37,2013-02-25 01:47:00,
2013-02-24 20:52:00,76.5,70.6,29.89,South,191,6.0,6.0,82,0.00,CLR,,0.00,WeatherDisplay:10.37,2013-02-25 01:52:00,
2013-02-24 20:57:00,76.5,70.6,29.89,SSE,161,5.8,5.8,82,0.00,CLR,,0.00,WeatherDisplay:10.37,2013-02-25 01:57:00,
2013-02-24 21:02:00,76.6,70.3,29.89,South,187,4.6,4.6,81,0.00,CLR,,0.00,WeatherDisplay:10.37,2013-02-25 02:02:00,
2013-02-24 21:07:00,76.6,70.3,29.89,SSE,161,4.6,4.6,81,0.00,CLR,,0.00,WeatherDisplay:10.37,2013-02-25 02:07:00,
2013-02-24 21:12:00,76.6,70.3,29.90,SSW,194,5.8,5.8,81,0.00,CLR,,0.00,WeatherDisplay:10.37,2013-02-25 02:12:00,
2013-02-24 21:17:00,76.6,70.3,29.89,South,178,6.9,6.9,81,0.00,CLR,,0.00,WeatherDisplay:10.37,2013-02-25 02:17:00,
2013-02-24 21:22:00,76.5,70.2,29.90,SSE,162,5.0,5.0,81,0.00,CLR,,0.00,WeatherDisplay:10.37,2013-02-25 02:22:00,
2013-02-24 21:27:00,76.4,70.1,29.90,South,179,4.6,4.6,81,0.00,CLR,,0.00,WeatherDisplay:10.37,2013-02-25 02:27:00,
2013-02-24 21:32:00,76.4,70.1,29.91,South,171,4.6,4.6,81,0.00,CLR,,0.00,WeatherDisplay:10.37,2013-02-25 02:32:00,
2013-02-24 21:37:00,76.4,70.1,29.90,SSW,192,4.6,4.6,81,0.00,CLR,,0.00,WeatherDisplay:10.37,2013-02-25 02:37:00,
2013-02-24 21:42:00,76.3,70.4,29.91,WSW,246,3.5,3.5,82,0.00,CLR,,0.00,WeatherDisplay:10.37,2013-02-25 02:42:00,
2013-02-24 21:47:00,76.2,70.3,29.91,SSW,197,4.6,4.6,82,0.00,CLR,,0.00,WeatherDisplay:10.37,2013-02-25 02:47:00,
2013-02-24 21:52:00,76.2,70.3,29.90,SSW,203,6.9,6.9,82,0.00,CLR,,0.00,WeatherDisplay:10.37,2013-02-25 02:52:00,
2013-02-24 21:57:00,76.1,70.2,29.91,South,189,6.9,6.9,82,0.00,CLR,,0.00,WeatherDisplay:10.37,2013-02-25 02:57:00,
2013-02-24 22:02:00,76.0,70.1,29.90,SSW,205,5.8,5.8,82,0.00,CLR,,0.00,WeatherDisplay:10.37,2013-02-25 03:02:00,
2013-02-24 22:07:00,76.0,70.1,29.90,SW,225,6.9,6.9,82,0.00,CLR,,0.00,WeatherDisplay:10.37,2013-02-25 03:07:00,
2013-02-24 22:12:00,75.8,69.9,29.90,SSW,207,8.1,8.1,82,0.00,CLR,,0.00,WeatherDisplay:10.37,2013-02-25 03:12:00,
2013-02-24 22:17:00,75.7,70.2,29.90,SSW,211,4.0,4.0,83,0.00,CLR,,0.00,WeatherDisplay:10.37,2013-02-25 03:17:00,
2013-02-24 22:22:00,75.6,69.7,29.90,SSW,200,5.8,5.8,82,0.00,CLR,,0.00,WeatherDisplay:10.37,2013-02-25 03:22:00,
2013-02-24 22:27:00,75.4,69.5,29.89,SSW,209,4.6,4.6,82,0.00,CLR,,0.00,WeatherDisplay:10.37,2013-02-25 03:27:00,
2013-02-24 22:32:00,75.2,69.3,29.89,SSW,207,5.8,5.8,82,0.00,CLR,,0.00,WeatherDisplay:10.37,2013-02-25 03:32:00,
2013-02-24 22:37:00,75.1,68.9,29.89,SSW,207,7.0,7.0,81,0.00,CLR,,0.00,WeatherDisplay:10.37,2013-02-25 03:37:00,
2013-02-24 22:42:00,74.9,68.7,29.89,SSW,205,4.6,4.6,81,0.00,CLR,,0.00,WeatherDisplay:10.37,2013-02-25 03:42:00,
2013-02-24 22:47:00,74.7,68.5,29.89,SW,234,4.0,4.0,81,0.00,CLR,,0.00,WeatherDisplay:10.37,2013-02-25 03:47:00,
2013-02-24 22:52:00,74.5,68.3,29.89,SW,224,5.8,5.8,81,0.00,CLR,,0.00,WeatherDisplay:10.37,2013-02-25 03:52:00,
2013-02-24 22:57:00,74.4,68.2,29.89,SSW,213,3.5,3.5,81,0.00,CLR,,0.00,WeatherDisplay:10.37,2013-02-25 03:57:00,
2013-02-24 23:02:00,74.2,68.0,29.89,SW,215,5.0,5.0,81,0.00,CLR,,0.00,WeatherDisplay:10.37,2013-02-25 04:02:00,
2013-02-24 23:07:00,74.0,68.2,29.88,SW,221,4.6,4.6,82,0.00,CLR,,0.00,WeatherDisplay:10.37,2013-02-25 04:07:00,
2013-02-24 23:12:00,73.9,68.1,29.88,SW,223,6.9,6.9,82,0.00,CLR,,0.00,WeatherDisplay:10.37,2013-02-25 04:12:00,
2013-02-24 23:17:00,73.8,68.0,29.88,SW,225,5.8,5.8,82,0.00,CLR,,0.00,WeatherDisplay:10.37,2013-02-25 04:17:00,
2013-02-24 23:22:00,73.6,67.8,29.88,SSW,211,5.8,5.8,82,0.00,CLR,,0.00,WeatherDisplay:10.37,2013-02-25 04:22:00,
2013-02-24 23:27:00,73.5,67.7,29.87,SSW,205,7.0,7.0,82,0.00,CLR,,0.00,WeatherDisplay:10.37,2013-02-25 04:27:00,
2013-02-24 23:32:00,73.4,67.6,29.86,SSW,209,5.8,5.8,82,0.00,CLR,,0.00,WeatherDisplay:10.37,2013-02-25 04:32:00,
2013-02-24 23:37:00,73.3,67.5,29.86,SSW,209,6.9,6.9,82,0.00,CLR,,0.00,WeatherDisplay:10.37,2013-02-25 04:37:00,
2013-02-24 23:42:00,73.1,67.6,29.86,SW,219,6.9,6.9,83,0.00,CLR,,0.00,WeatherDisplay:10.37,2013-02-25 04:42:00,
2013-02-24 23:47:00,72.9,67.4,29.86,SW,227,4.6,4.6,83,0.00,CLR,,0.00,WeatherDisplay:10.37,2013-02-25 04:47:00,
2013-02-24 23:52:00,72.8,67.3,29.86,SW,219,4.6,4.6,83,0.00,CLR,,0.00,WeatherDisplay:10.37,2013-02-25 04:52:00,
2013-02-24 23:57:00,72.6,67.5,29.86,WSW,238,3.5,3.5,84,0.00,CLR,,0.00,WeatherDisplay:10.37,2013-02-25 04:57:00,